DELTA 1 DEB

Satellite information

Favourite Embed

Satellite Type and Status

DEBRISIN ORBIT

Key statistics

Satellite DELTA 1 DEB at a glance.

Uptime

17691

Days in orbit

Revolutions

≈ 13.8

Per day

Orbit

LEO

Low Earth Orbit

Inclination

29.0

Latest

Satellite identification and parameters

Extended collection of information and parameters for DELTA 1 DEB.

Object identification

Identified? True

Debris? True

Object name: DELTA 1 DEB

International designator: 1977-065CC

Object number (NORAD): 10251

Object ID (CCSDS): 10251

Country: UNITED STATES OF AMERICA (US)

Current information (Y/N): Y

RCS size: SMALL

Orbital parameters

Period: 104.0 minutes

Inclination: 28.9756 deg

SMA: 7325.695 km

Apoapsis: 1439.287 km

Periapsis: 455.833 km

RAAN: 75.9796 deg

Eccentricy: 0.0671236

Argument of periapsis: 323.3021 deg

Mean anomaly: 32.3333 deg

Mean motion: 13.84616407 rev/day

Mean motion (dot): 0.00001951 rev/day2

B* drag term: 0.00025004 1/REarth

Two-line elements (TLE)

Creation date: Dec. 19, 2025, 9:06 p.m.

Reference frame: TEME

Reference center: EARTH

Epoch: Dec. 19, 2025, 11:48 a.m. UTC

TLE line 0: 0 DELTA 1 DEB

TLE line 1: 1 10251U 77065CC 25353.49197889 .00001951 00000-0 25004-3 0 9997

TLE line 2: 2 10251 28.9756 75.9796 0671236 323.3021 32.3333 13.84616407392337

Live tracking on map

Real-time ground track for satellite DELTA 1 DEB.

In-orbit conjunctions

A list of the most updated potential collisions computed for object DELTA 1 DEB.

Target Orbit TCA Probability of collision Miss distance Type
COSMOS 1233 LEO 2024-07-11 02:39:24 0.0005459509 387.0 (m) PAYLOAD

Associated space launch

Japanese meteorological satellite built by Hughes Space and Communications Company

DELTA 1 DEB was lifted into orbit during the mission ‘Delta 2914 | Himawari’, on board a Delta 2914 space rocket.

The launch took place on July 14, 1977, 10:39 a.m. from Space Launch Complex 17B.

For more information about the launch, click the button.

Launch to space Delta 2914 | Himawari
Delta 2914 | Himawari

Agency: N/A

Status: Launch Successful

Launch date: July 14, 1977, 10:39 a.m. UTC

Rocket: Delta 2914

Launch pad: Space Launch Complex 17B

Location: Cape Canaveral SFS, FL, USA

...

Latest news about this satellite

There are no fresh news available about this satellite. Check back as we update our databases every day.


Newsletter sign-up

Weekly statistics, charts and insights to help you stay on top of the space industry.